Location: Unspecified
(44.0704°N, 88.6889°W)
Time: 11:00:54
(UTC+02:00)

Vanguard 2 Rocket - Pass Details

Date: 15 August 2020
Orbit: 554 x 3326 km, 32.9° (Epoch: 22 September)

Event Time Altitude Azimuth Distance (km) Brightness Sun altitude
Rises 05:41:52 0° 265° (W) 4,452 10.9 -24.1°
Reaches altitude 10° 05:45:06 10° 252° (WSW) 3,844 10.3 -24.5°
Maximum altitude 05:53:15 25° 202° (SSW) 3,591 9.6 -25.3°
Enters shadow 05:56:07 24° 185° (S) 3,939 9.7 -25.6°
